[[{"header":{"parameterUnit":"m.s-1","parameterCategory":2,"la1":30.2991,"la2":30.254,"lo1":-89.0895,"lo2":-89.0444,"dy":0.0017,"dx":0.0017,"nx":28,"ny":28,"refTime":"2026-01-30T03:00:00:Z","depth":"0","parameterNumber":2,"parameterNumberName":"U-component_of_CURRENTS"},"data":[0,0,0,0,0,0,0,0,0,0,0,0,0,0,0,0,0,0,0,0,0,0,0,0,0,0,0,0,0,0,0,0,0,0,0,0,0,0,0,0,0,0,0,0,0,0,0,0,0,0,0,0,0,0,0,0,0,0,-0.2266,-0.2266,0,-0.2343,-0.2344,-0.2345,-0.2339,-0.2338,-0.2337,-0.2336,-0.243,-0.2434,-0.2437,0,0,0,0,0,0,0,0,0,0,0,0,0,-0.2169,-0.2171,-0.2265,-0.2267,-0.2268,-0.2343,-0.2344,-0.2345,-0.2339,-0.2338,-0.2337,-0.2336,-0.2429,-0.2433,-0.2437,0,0,0,0,0,0,0,0,0,0,0,0,0,-0.2224,-0.2171,-0.2265,-0.2275,-0.2277,-0.2343,-0.2344,-0.2345,-0.234,-0.2338,-0.2337,-0.2335,-0.2428,-0.2433,-0.2438,-0.2501,0,0,-0.2454,-0.2456,0,0,0,0,0,0,0,0,-0.2221,-0.2227,-0.2272,-0.2274,-0.2277,-0.2331,-0.2345,-0.2398,-0.234,-0.2314,-0.2336,-0.2334,-0.2401,-0.2408,-0.2424,-0.2505,-0.2509,-0.2454,-0.2457,-0.246,-0.2461,0,0,0,0,0,0,0,-0.2217,-0.2224,-0.2295,-0.2274,-0.2276,-0.2295,-0.2301,-0.2355,-0.2364,-0.2316,-0.2316,-0.2328,-0.2402,-0.2419,-0.2426,-0.251,-0.2454,-0.2459,-0.2462,-0.2464,-0.2633,-0.2634,0,0,0,0,0,0,-0.2209,-0.2221,-0.2292,-0.2297,-0.2246,-0.2298,-0.2304,-0.2314,-0.2363,-0.237,-0.2329,-0.2327,-0.2411,-0.242,-0.2429,-0.2481,-0.246,-0.2464,-0.2467,-0.2632,-0.2633,-0.2635,0,0,0,0,0,0,-0.2207,-0.2215,-0.2289,-0.2262,-0.2273,-0.2301,-0.2313,-0.2316,-0.2329,-0.2373,-0.2379,-0.2337,-0.241,-0.2422,-0.2468,-0.2485,-0.2467,-0.2471,-0.263,-0.2632,-0.2634,-0.26,0,0,0,0,0,0,-0.2204,-0.2214,-0.2217,-0.2261,-0.2274,-0.2323,-0.2314,-0.2319,-0.234,-0.2338,-0.2383,-0.239,-0.241,-0.246,-0.2474,-0.2492,-0.2476,-0.2628,-0.2631,-0.2634,-0.2599,-0.2601,-0.2602,0,0,0,0,0,-0.22,-0.2214,-0.2217,-0.2225,-0.2278,-0.2323,-0.2332,-0.2346,-0.2342,-0.2351,-0.2376,-0.2388,-0.2486,-0.2466,-0.2481,-0.2501,-0.2627,-0.263,-0.2633,-0.2599,-0.26,-0.2602,0,0,0,0,0,0,-0.2179,-0.2216,-0.222,-0.2244,-0.2277,-0.2323,-0.2335,-0.235,-0.2379,-0.2375,-0.2408,-0.2418,-0.2464,-0.2496,-0.2472,-0.256,-0.256,-0.2566,-0.2528,-0.253,-0.2532,-0.2512,-0.248,0,0,0,0,0,-0.2176,-0.2187,-0.2232,-0.2249,-0.2265,-0.2301,-0.2321,-0.2335,-0.2369,-0.2379,-0.241,-0.245,-0.2494,-0.2518,-0.2561,-0.2615,-0.2618,-0.2639,-0.2641,-0.2641,-0.2638,-0.2653,-0.2653,-0.2645,-0.2645,-0.2645,0,0,-0.2171,-0.2194,-0.2199,-0.2244,-0.2268,-0.23,-0.2308,-0.234,-0.2363,-0.2389,-0.2424,-0.2457,-0.251,-0.2557,-0.2582,-0.2582,-0.2645,-0.2645,-0.2645,-0.2641,-0.2656,-0.2656,-0.2656,-0.2647,-0.2647,-0.2647,0,0,-0.217,-0.2188,-0.2198,-0.2227,-0.2267,-0.2297,-0.2306,-0.2354,-0.2367,-0.2411,-0.2433,-0.2471,-0.2541,-0.2575,-0.2603,-0.2645,-0.2649,-0.2667,-0.2658,-0.2672,-0.2672,-0.2672,-0.2663,-0.2662,-0.2668,-0.2668,-0.2668,0,-0.2163,-0.2179,-0.2209,-0.2232,-0.2254,-0.2295,-0.2317,-0.2351,-0.2404,-0.2418,-0.2414,-0.2506,-0.2548,-0.2607,-0.2616,-0.2646,-0.2643,-0.2642,-0.267,-0.267,-0.267,-0.2661,-0.2661,-0.2666,-0.2667,-0.2667,-0.2667,0,-0.2173,-0.2185,-0.2196,-0.2232,-0.2266,-0.2291,-0.2343,-0.2372,-0.2392,-0.2419,-0.2467,-0.2516,-0.2565,-0.2592,-0.2616,-0.2655,-0.2647,-0.2663,-0.2655,-0.2668,-0.2659,-0.2659,-0.2665,-0.2665,-0.2665,-0.2666,0,0,-0.2156,-0.2192,-0.2195,-0.2201,-0.2264,-0.2292,-0.2337,-0.2385,-0.2406,-0.2447,-0.2469,-0.2541,-0.2554,-0.2589,-0.2628,-0.2644,-0.2644,-0.2651,-0.2653,-0.2621,-0.2652,-0.259,-0.2584,-0.2657,-0.2657,-0.2658,-0.2637,0,-0.2149,-0.2169,-0.2201,-0.2226,-0.2239,-0.2292,-0.2331,-0.2381,-0.2417,-0.2452,-0.2497,-0.2537,-0.256,-0.2579,-0.26,-0.2644,-0.2646,-0.2647,-0.2663,-0.2663,-0.2588,-0.2583,-0.2486,-0.2455,-0.2638,-0.2638,-0.2638,0,-0.215,-0.2156,-0.2173,-0.2204,-0.2217,-0.2245,-0.2302,-0.2342,-0.2408,-0.2434,-0.2475,-0.2513,-0.2562,-0.257,-0.2619,-0.2615,-0.2626,-0.2645,-0.2645,-0.2598,-0.2601,-0.2477,-0.2448,-0.2296,-0.2638,-0.2638,-0.2638,0,-0.2111,-0.2139,-0.2143,-0.2158,-0.2209,-0.2224,-0.2254,-0.2324,-0.2352,-0.2417,-0.2438,-0.2499,-0.2526,-0.2556,-0.2599,-0.2607,-0.2632,-0.2651,-0.2599,-0.2594,-0.2521,-0.2509,-0.2329,-0.2663,-0.2663,-0.2663,-0.2663,0,-0.2092,-0.2092,-0.2117,-0.2119,-0.212,-0.2178,-0.2196,-0.2243,-0.2306,-0.2331,-0.2414,-0.2444,-0.2523,-0.2554,-0.2584,-0.2583,-0.2617,-0.2586,-0.2584,-0.2506,-0.2493,-0.2368,-0.2316,-0.2662,-0.2663,-0.2663,-0.2663,0,-0.205,-0.2071,-0.2067,-0.2096,-0.2099,-0.2099,-0.2141,-0.2151,-0.2233,-0.2268,-0.2287,-0.2397,-0.2439,-0.2499,-0.2551,-0.2553,-0.2466,-0.2556,-0.2445,-0.243,-0.2231,-0.2183,-0.2061,-0.1963,-0.2487,-0.2486,-0.2484,0,-0.2024,-0.2019,-0.203,-0.2006,-0.2009,-0.2014,-0.201,-0.2094,-0.2112,-0.2232,-0.2236,-0.2314,-0.235,-0.2403,-0.244,-0.2459,-0.2377,-0.2353,-0.2355,-0.2184,-0.2132,-0.2123,-0.2048,-0.2243,-0.224,-0.2237,-0.2235,0,-0.1956,-0.1969,-0.1958,-0.1912,-0.1893,-0.1879,-0.1885,-0.1897,-0.1999,-0.2048,-0.2111,-0.2157,-0.2253,-0.2246,-0.2283,-0.229,-0.2188,-0.2297,-0.2154,-0.1941,-0.1888,-0.1803,-0.228,-0.2211,-0.2214,-0.2215,-0.2217,-0.2218,-0.1888,-0.186,-0.1838,-0.1786,-0.1766,-0.172,-0.1665,-0.1709,-0.173,-0.1776,-0.192,-0.1946,-0.2033,-0.2093,-0.2074,-0.1949,-0.2023,-0.1868,-0.183,-0.1842,-0.1715,-0.2121,-0.2032,-0.2034,-0.2035,-0.2036,-0.2037,0,-0.1752,-0.1735,-0.1696,-0.1622,-0.1551,-0.1583,-0.1552,-0.1492,-0.1465,-0.1575,-0.1624,-0.1678,-0.1663,-0.1702,-0.1639,-0.1492,-0.1482,-0.14,-0.1344,-0.1297,-0.1673,-0.1625,-0.1401,-0.1401,-0.1401,-0.1402,-0.1402,-0.1402,-0.1675,-0.1588,-0.1568,-0.1411,-0.1365,-0.1232,-0.1183,-0.1141,-0.117,-0.1184,-0.1223,-0.1323,-0.1454,-0.1336,-0.1112,-0.1057,-0.0902,-0.091,-0.0865,-0.1091,-0.1131,-0.117,-0.1109,-0.0781,-0.078,-0.0466,-0.0463,-0.046]},{"header":{"parameterUnit":"m.s-1","parameterCategory":2,"la1":30.2991,"la2":30.254,"lo1":-89.0895,"lo2":-89.0444,"dy":0.0017,"dx":0.0017,"nx":28,"ny":28,"refTime":"2026-01-30T03:00:00:Z","depth":"0","parameterNumber":3,"parameterNumberName":"V-component_of_CURRENTS"},"data":[0,0,0,0,0,0,0,0,0,0,0,0,0,0,0,0,0,0,0,0,0,0,0,0,0,0,0,0,0,0,0,0,0,0,0,0,0,0,0,0,0,0,0,0,0,0,0,0,0,0,0,0,0,0,0,0,0,0,-0.0191,-0.0191,0,-0.0194,-0.0194,-0.0195,-0.0168,-0.0167,-0.0166,-0.0165,-0.0075,-0.0074,-0.0073,0,0,0,0,0,0,0,0,0,0,0,0,0,-0.0248,-0.0246,-0.0191,-0.0191,-0.0191,-0.0194,-0.0195,-0.0195,-0.0168,-0.0167,-0.0166,-0.0165,-0.0076,-0.0074,-0.0072,0,0,0,0,0,0,0,0,0,0,0,0,0,-0.0236,-0.0246,-0.0191,-0.0176,-0.0175,-0.0194,-0.0195,-0.0195,-0.0168,-0.0167,-0.0166,-0.0164,-0.0077,-0.0074,-0.0072,-0.0086,0,0,-0.0065,-0.0064,0,0,0,0,0,0,0,0,-0.0237,-0.0234,-0.0179,-0.0177,-0.0176,-0.0177,-0.0181,-0.0153,-0.0169,-0.0173,-0.0165,-0.0164,-0.0101,-0.0096,-0.0104,-0.0082,-0.0078,-0.0065,-0.0064,-0.0063,-0.0062,0,0,0,0,0,0,0,-0.0237,-0.0234,-0.0194,-0.0179,-0.0177,-0.0199,-0.0195,-0.0177,-0.0145,-0.0173,-0.017,-0.0168,-0.0099,-0.0107,-0.0102,-0.0077,-0.0065,-0.0063,-0.0062,-0.0061,-0.0055,-0.0056,0,0,0,0,0,0,-0.0229,-0.0235,-0.0194,-0.0194,-0.0201,-0.0198,-0.0194,-0.018,-0.0147,-0.0141,-0.0169,-0.0166,-0.0111,-0.0104,-0.0098,-0.012,-0.0063,-0.0061,-0.0059,-0.0054,-0.0055,-0.0056,0,0,0,0,0,0,-0.023,-0.0225,-0.0194,-0.0214,-0.0211,-0.0198,-0.0183,-0.0181,-0.018,-0.0145,-0.0136,-0.0168,-0.011,-0.0101,-0.0102,-0.0115,-0.006,-0.0057,-0.0052,-0.0054,-0.0056,-0.0158,0,0,0,0,0,0,-0.0232,-0.0226,-0.022,-0.0213,-0.0209,-0.0211,-0.0184,-0.0182,-0.018,-0.0177,-0.0142,-0.0133,-0.0108,-0.0106,-0.01,-0.0111,-0.0056,-0.0051,-0.0053,-0.0055,-0.0153,-0.0163,-0.0172,0,0,0,0,0,-0.0234,-0.0232,-0.022,-0.0215,-0.0199,-0.0212,-0.0214,-0.0202,-0.0181,-0.0193,-0.0179,-0.0133,-0.0115,-0.0106,-0.0098,-0.0109,-0.005,-0.0052,-0.0055,-0.0149,-0.0161,-0.0171,0,0,0,0,0,0,-0.026,-0.0229,-0.0215,-0.0205,-0.0209,-0.0207,-0.0214,-0.0204,-0.0204,-0.0194,-0.0158,-0.015,-0.0155,-0.0121,-0.0112,-0.0114,-0.007,-0.0072,-0.0144,-0.0155,-0.0164,-0.0162,-0.0054,0,0,0,0,0,-0.0262,-0.0247,-0.0234,-0.0229,-0.0228,-0.0221,-0.0224,-0.0217,-0.0212,-0.021,-0.0192,-0.0169,-0.0163,-0.015,-0.0139,-0.0142,-0.0105,-0.0141,-0.015,-0.0158,-0.0152,-0.0129,-0.0136,-0.0065,-0.0065,-0.0065,0,0,-0.0273,-0.0253,-0.0246,-0.0234,-0.0232,-0.0253,-0.022,-0.0226,-0.0248,-0.0199,-0.0222,-0.0203,-0.0174,-0.0188,-0.0183,-0.0157,-0.0162,-0.0162,-0.0169,-0.0157,-0.0133,-0.014,-0.0146,-0.0067,-0.0067,-0.0066,0,0,-0.0294,-0.0268,-0.0266,-0.0274,-0.0269,-0.0273,-0.0274,-0.0274,-0.0276,-0.0297,-0.0272,-0.0267,-0.0252,-0.0243,-0.0234,-0.0283,-0.0217,-0.027,-0.0308,-0.0288,-0.0294,-0.0298,-0.0273,-0.0274,-0.0268,-0.0268,-0.0268,0,-0.0312,-0.0301,-0.0276,-0.0287,-0.0303,-0.0284,-0.0312,-0.0321,-0.0326,-0.0332,-0.0312,-0.0306,-0.0281,-0.0296,-0.0316,-0.0303,-0.0276,-0.0272,-0.03,-0.0304,-0.0306,-0.028,-0.028,-0.0273,-0.0273,-0.0272,-0.0272,0,-0.0336,-0.0336,-0.0342,-0.0347,-0.0368,-0.0387,-0.0396,-0.0412,-0.0407,-0.0409,-0.042,-0.0398,-0.0386,-0.0383,-0.0365,-0.0374,-0.0345,-0.0322,-0.0274,-0.032,-0.0289,-0.0287,-0.0281,-0.0279,-0.0277,-0.0276,0,0,-0.0365,-0.0356,-0.0362,-0.0379,-0.04,-0.0424,-0.0462,-0.0491,-0.051,-0.0506,-0.0525,-0.0521,-0.0489,-0.0475,-0.0447,-0.0428,-0.0433,-0.0384,-0.0381,-0.0362,-0.0383,-0.0378,-0.0374,-0.0414,-0.0414,-0.0414,-0.0359,0,-0.0397,-0.0415,-0.0417,-0.0476,-0.0495,-0.0508,-0.0551,-0.0574,-0.058,-0.0596,-0.0563,-0.0568,-0.053,-0.052,-0.0501,-0.0448,-0.043,-0.0449,-0.0338,-0.0334,-0.0326,-0.0373,-0.0471,-0.0431,-0.0357,-0.0356,-0.0356,0,-0.0432,-0.0436,-0.0473,-0.0528,-0.0541,-0.0584,-0.0643,-0.0676,-0.0687,-0.0684,-0.0671,-0.0641,-0.0619,-0.0575,-0.0504,-0.0517,-0.0458,-0.0412,-0.0409,-0.0362,-0.0325,-0.0369,-0.043,-0.0416,-0.0352,-0.0352,-0.0353,0,-0.0459,-0.0497,-0.0522,-0.054,-0.0587,-0.0624,-0.0664,-0.0697,-0.0727,-0.0729,-0.0734,-0.07,-0.0674,-0.0606,-0.0512,-0.0507,-0.0423,-0.0403,-0.0343,-0.0342,-0.038,-0.0382,-0.0414,-0.0353,-0.0353,-0.0353,-0.0353,0,-0.0497,-0.0533,-0.0533,-0.0552,-0.0616,-0.0647,-0.0719,-0.0743,-0.0771,-0.0809,-0.0771,-0.0779,-0.0679,-0.0621,-0.0533,-0.0434,-0.0437,-0.0356,-0.0332,-0.042,-0.0426,-0.0376,-0.0335,-0.0351,-0.0351,-0.0352,-0.0352,0,-0.0534,-0.0524,-0.0561,-0.0598,-0.0624,-0.0669,-0.0759,-0.0806,-0.0818,-0.0861,-0.0861,-0.083,-0.0758,-0.0654,-0.0536,-0.0462,-0.0341,-0.0327,-0.0435,-0.0425,-0.0363,-0.0323,-0.0201,-0.0152,-0.0263,-0.0263,-0.0263,0,-0.0558,-0.0563,-0.0587,-0.0612,-0.0636,-0.0706,-0.0766,-0.0819,-0.0867,-0.0898,-0.0919,-0.0864,-0.0852,-0.0679,-0.0547,-0.0406,-0.0323,-0.0383,-0.0392,-0.0381,-0.0318,-0.0228,-0.0189,-0.0487,-0.0489,-0.049,-0.0491,0,-0.0601,-0.0585,-0.0597,-0.0631,-0.0689,-0.0774,-0.0858,-0.0903,-0.0963,-0.1,-0.1033,-0.1026,-0.0888,-0.0815,-0.0619,-0.0511,-0.0371,-0.0402,-0.0376,-0.0484,-0.0403,-0.0339,-0.0488,-0.0502,-0.0501,-0.05,-0.0499,-0.0499,-0.0625,-0.0626,-0.0614,-0.0661,-0.0726,-0.0826,-0.0901,-0.0995,-0.1078,-0.1163,-0.1138,-0.1184,-0.1088,-0.0849,-0.0692,-0.0523,-0.0409,-0.0493,-0.044,-0.0344,-0.0318,-0.0482,-0.0473,-0.0472,-0.0471,-0.047,-0.0469,0,-0.0635,-0.063,-0.0661,-0.0705,-0.0781,-0.0819,-0.0951,-0.1034,-0.1144,-0.1263,-0.1314,-0.1358,-0.1226,-0.1039,-0.0798,-0.0633,-0.0516,-0.0532,-0.0473,-0.0425,-0.0594,-0.0631,-0.0677,-0.0677,-0.0677,-0.0677,-0.0677,-0.0677,-0.0637,-0.063,-0.0634,-0.0734,-0.0785,-0.0902,-0.0978,-0.1114,-0.1232,-0.1428,-0.1534,-0.1592,-0.1486,-0.104,-0.0749,-0.065,-0.0497,-0.0462,-0.0314,-0.0519,-0.0513,-0.0507,-0.0536,-0.0561,-0.056,-0.0196,-0.0193,-0.0191]}],[{"header":{"parameterUnit":"m.s-1","parameterCategory":2,"la1":30.2991,"la2":30.254,"lo1":-89.0895,"lo2":-89.0444,"dy":0.0017,"dx":0.0017,"nx":28,"ny":28,"refTime":"2026-01-30T03:00:00:Z","depth":"2","parameterNumber":2,"parameterNumberName":"U-component_of_CURRENTS"},"data":[0,0,0,0,0,0,0,0,0,0,0,0,0,0,0,0,0,0,0,0,0,0,0,0,0,0,0,0,0,0,0,0,0,0,0,0,0,0,0,0,0,0,0,0,0,0,0,0,0,0,0,0,0,0,0,0,0,0,-0.2273,-0.2274,0,-0.2351,-0.2351,-0.2352,-0.2347,-0.2346,-0.2345,-0.2344,-0.2438,-0.2441,-0.2444,0,0,0,0,0,0,0,0,0,0,0,0,0,-0.2177,-0.2178,-0.2273,-0.2274,-0.2275,-0.235,-0.2351,-0.2352,-0.2347,-0.2346,-0.2345,-0.2343,-0.2437,-0.2441,-0.2445,0,0,0,0,0,0,0,0,0,0,0,0,0,-0.2232,-0.2179,-0.2273,-0.2283,-0.2284,-0.235,-0.2351,-0.2353,-0.2347,-0.2346,-0.2344,-0.2343,-0.2435,-0.244,-0.2445,-0.2508,0,0,-0.2461,-0.2463,0,0,0,0,0,0,0,0,-0.2228,-0.2235,-0.228,-0.2282,-0.2284,-0.2339,-0.2352,-0.2406,-0.2348,-0.2322,-0.2344,-0.2342,-0.2408,-0.2415,-0.2431,-0.2512,-0.2516,-0.2462,-0.2465,-0.2467,-0.2468,0,0,0,0,0,0,0,-0.2224,-0.2232,-0.2302,-0.2281,-0.2284,-0.2303,-0.2308,-0.2362,-0.2372,-0.2324,-0.2324,-0.2336,-0.2409,-0.2426,-0.2433,-0.2517,-0.2461,-0.2466,-0.2469,-0.2471,-0.264,-0.2641,0,0,0,0,0,0,-0.2217,-0.2228,-0.23,-0.2305,-0.2254,-0.2306,-0.2312,-0.2322,-0.2371,-0.2377,-0.2337,-0.2335,-0.2418,-0.2427,-0.2437,-0.2488,-0.2467,-0.2472,-0.2475,-0.2638,-0.264,-0.2642,0,0,0,0,0,0,-0.2214,-0.2222,-0.2297,-0.2269,-0.228,-0.2309,-0.232,-0.2324,-0.2337,-0.2381,-0.2387,-0.2345,-0.2417,-0.2429,-0.2476,-0.2492,-0.2474,-0.2479,-0.2637,-0.2639,-0.2641,-0.2607,0,0,0,0,0,0,-0.2211,-0.2221,-0.2225,-0.2269,-0.2281,-0.233,-0.2322,-0.2327,-0.2347,-0.2346,-0.2391,-0.2398,-0.2417,-0.2468,-0.2481,-0.2499,-0.2483,-0.2635,-0.2638,-0.264,-0.2606,-0.2608,-0.2609,0,0,0,0,0,-0.2208,-0.2221,-0.2224,-0.2233,-0.2286,-0.2331,-0.2339,-0.2353,-0.2349,-0.2359,-0.2384,-0.2396,-0.2494,-0.2473,-0.2488,-0.2508,-0.2634,-0.2637,-0.264,-0.2606,-0.2607,-0.2609,0,0,0,0,0,0,-0.2187,-0.2224,-0.2227,-0.2252,-0.2285,-0.233,-0.2343,-0.2357,-0.2387,-0.2383,-0.2415,-0.2425,-0.2472,-0.2503,-0.2479,-0.2567,-0.2567,-0.2573,-0.2536,-0.2538,-0.2539,-0.252,-0.2487,0,0,0,0,0,-0.2184,-0.2195,-0.224,-0.2257,-0.2273,-0.2309,-0.2328,-0.2342,-0.2376,-0.2387,-0.2418,-0.2458,-0.2501,-0.2525,-0.2568,-0.2622,-0.2624,-0.2646,-0.2647,-0.2648,-0.2645,-0.2659,-0.266,-0.2652,-0.2652,-0.2652,0,0,-0.2179,-0.2201,-0.2207,-0.2252,-0.2276,-0.2307,-0.2316,-0.2348,-0.2371,-0.2397,-0.2432,-0.2465,-0.2517,-0.2564,-0.259,-0.2589,-0.2652,-0.2652,-0.2652,-0.2648,-0.2663,-0.2663,-0.2663,-0.2654,-0.2654,-0.2653,0,0,-0.2178,-0.2196,-0.2206,-0.2235,-0.2276,-0.2305,-0.2314,-0.2362,-0.2375,-0.2419,-0.2441,-0.2478,-0.2548,-0.2582,-0.2611,-0.2652,-0.2656,-0.2674,-0.2666,-0.268,-0.268,-0.2679,-0.267,-0.2669,-0.2675,-0.2675,-0.2675,0,-0.2171,-0.2187,-0.2217,-0.224,-0.2262,-0.2303,-0.2325,-0.2359,-0.2412,-0.2426,-0.2422,-0.2514,-0.2555,-0.2614,-0.2624,-0.2653,-0.2651,-0.2649,-0.2677,-0.2677,-0.2678,-0.2668,-0.2668,-0.2674,-0.2674,-0.2674,-0.2674,0,-0.2182,-0.2193,-0.2205,-0.2241,-0.2275,-0.23,-0.2352,-0.2381,-0.24,-0.2428,-0.2476,-0.2524,-0.2573,-0.2599,-0.2624,-0.2662,-0.2655,-0.2671,-0.2662,-0.2676,-0.2666,-0.2666,-0.2672,-0.2672,-0.2673,-0.2673,0,0,-0.2165,-0.2201,-0.2204,-0.221,-0.2273,-0.23,-0.2346,-0.2394,-0.2414,-0.2456,-0.2478,-0.255,-0.2563,-0.2597,-0.2636,-0.2652,-0.2652,-0.2659,-0.266,-0.2629,-0.266,-0.2597,-0.2591,-0.2665,-0.2665,-0.2665,-0.2645,0,-0.2158,-0.2178,-0.221,-0.2235,-0.2249,-0.2302,-0.234,-0.239,-0.2426,-0.2461,-0.2506,-0.2545,-0.2569,-0.2588,-0.2609,-0.2652,-0.2654,-0.2655,-0.267,-0.267,-0.2595,-0.259,-0.236,-0.2318,-0.2645,-0.2645,-0.2645,0,-0.2158,-0.2165,-0.2182,-0.2213,-0.2227,-0.2255,-0.2312,-0.2352,-0.2417,-0.2444,-0.2484,-0.2522,-0.2571,-0.2578,-0.2627,-0.2624,-0.2634,-0.2653,-0.2653,-0.2606,-0.2608,-0.2363,-0.2306,-0.2646,-0.2646,-0.2646,-0.2646,0,-0.212,-0.2148,-0.2153,-0.2167,-0.2219,-0.2234,-0.2264,-0.2334,-0.2362,-0.2427,-0.2448,-0.2508,-0.2536,-0.2565,-0.2608,-0.2616,-0.264,-0.2659,-0.2606,-0.2601,-0.2415,-0.2393,-0.2671,-0.2671,-0.2671,-0.2671,-0.2671,0,-0.2101,-0.21,-0.2127,-0.2128,-0.213,-0.2189,-0.2207,-0.2253,-0.2316,-0.2341,-0.2424,-0.2454,-0.2532,-0.2563,-0.2593,-0.259,-0.2626,-0.2593,-0.2592,-0.2397,-0.2375,-0.2676,-0.2677,-0.267,-0.267,-0.267,-0.2671,0,-0.2058,-0.208,-0.2077,-0.2106,-0.2109,-0.211,-0.2151,-0.2162,-0.2244,-0.2279,-0.2297,-0.2406,-0.2448,-0.2508,-0.2559,-0.2561,-0.2576,-0.2563,-0.2319,-0.229,-0.2529,-0.2529,-0.2498,-0.2496,-0.2494,-0.2492,-0.2491,0,-0.2032,-0.2028,-0.2039,-0.2016,-0.2019,-0.2024,-0.2022,-0.2105,-0.2123,-0.2242,-0.2246,-0.2324,-0.2352,-0.2404,-0.2398,-0.2405,-0.2514,-0.2221,-0.2205,-0.2509,-0.2511,-0.2514,-0.2517,-0.1937,-0.1931,-0.1926,-0.1922,0,-0.1965,-0.1977,-0.1967,-0.1922,-0.1903,-0.189,-0.1896,-0.1909,-0.201,-0.2055,-0.2116,-0.2155,-0.2208,-0.2121,-0.2141,-0.2129,-0.2204,-0.2126,-0.2491,-0.203,-0.1981,-0.1984,-0.2004,-0.188,-0.1884,-0.1887,-0.1889,-0.1891,-0.1896,-0.1869,-0.1848,-0.1796,-0.1776,-0.1731,-0.1677,-0.1716,-0.1731,-0.1759,-0.1891,-0.1874,-0.1935,-0.1838,-0.1798,-0.1777,-0.1955,-0.1891,-0.1904,-0.1923,-0.1876,-0.1828,-0.1687,-0.1689,-0.1692,-0.1694,-0.1697,0,-0.176,-0.1744,-0.1705,-0.1633,-0.1564,-0.1594,-0.1563,-0.1508,-0.147,-0.1529,-0.1544,-0.1444,-0.1378,-0.146,-0.135,-0.1382,-0.1355,-0.1346,-0.1292,-0.1335,-0.1373,-0.1297,-0.0954,-0.0952,-0.095,-0.0948,0,0,-0.1684,-0.1598,-0.1578,-0.1425,-0.1379,-0.1259,-0.121,-0.117,-0.1172,-0.1148,-0.1126,-0.1197,-0.1339,-0.1089,-0.109,-0.0996,-0.1143,-0.0944,-0.1533,-0.1504,-0.1539,-0.1679,-0.1609,0,0,0,0,0]},{"header":{"parameterUnit":"m.s-1","parameterCategory":2,"la1":30.2991,"la2":30.254,"lo1":-89.0895,"lo2":-89.0444,"dy":0.0017,"dx":0.0017,"nx":28,"ny":28,"refTime":"2026-01-30T03:00:00:Z","depth":"2","parameterNumber":3,"parameterNumberName":"V-component_of_CURRENTS"},"data":[0,0,0,0,0,0,0,0,0,0,0,0,0,0,0,0,0,0,0,0,0,0,0,0,0,0,0,0,0,0,0,0,0,0,0,0,0,0,0,0,0,0,0,0,0,0,0,0,0,0,0,0,0,0,0,0,0,0,-0.0155,-0.0155,0,-0.0157,-0.0158,-0.0158,-0.0131,-0.013,-0.013,-0.0129,-0.0039,-0.0038,-0.0036,0,0,0,0,0,0,0,0,0,0,0,0,0,-0.0212,-0.0211,-0.0155,-0.0155,-0.0155,-0.0157,-0.0158,-0.0158,-0.0132,-0.013,-0.0129,-0.0128,-0.004,-0.0038,-0.0036,0,0,0,0,0,0,0,0,0,0,0,0,0,-0.02,-0.021,-0.0155,-0.014,-0.0139,-0.0157,-0.0158,-0.0158,-0.0132,-0.013,-0.0129,-0.0128,-0.004,-0.0038,-0.0036,-0.0049,0,0,-0.0029,-0.0028,0,0,0,0,0,0,0,0,-0.0201,-0.0198,-0.0143,-0.0141,-0.014,-0.0141,-0.0145,-0.0116,-0.0132,-0.0137,-0.0129,-0.0127,-0.0064,-0.006,-0.0068,-0.0045,-0.0041,-0.0029,-0.0027,-0.0026,-0.0026,0,0,0,0,0,0,0,-0.0201,-0.0198,-0.0158,-0.0143,-0.0141,-0.0162,-0.0159,-0.014,-0.0108,-0.0136,-0.0134,-0.0131,-0.0063,-0.007,-0.0065,-0.004,-0.0029,-0.0027,-0.0025,-0.0024,-0.0018,-0.0019,0,0,0,0,0,0,-0.0194,-0.0199,-0.0158,-0.0158,-0.0165,-0.0162,-0.0158,-0.0144,-0.011,-0.0104,-0.0132,-0.013,-0.0075,-0.0068,-0.0062,-0.0084,-0.0026,-0.0024,-0.0023,-0.0017,-0.0018,-0.0019,0,0,0,0,0,0,-0.0195,-0.019,-0.0158,-0.0178,-0.0175,-0.0162,-0.0146,-0.0144,-0.0144,-0.0108,-0.01,-0.0132,-0.0074,-0.0065,-0.0065,-0.0079,-0.0023,-0.0021,-0.0015,-0.0017,-0.0019,-0.0121,0,0,0,0,0,0,-0.0196,-0.019,-0.0184,-0.0176,-0.0173,-0.0175,-0.0147,-0.0145,-0.0144,-0.014,-0.0105,-0.0096,-0.0072,-0.0069,-0.0063,-0.0075,-0.0019,-0.0014,-0.0016,-0.0018,-0.0116,-0.0126,-0.0135,0,0,0,0,0,-0.0198,-0.0197,-0.0184,-0.0179,-0.0163,-0.0175,-0.0177,-0.0165,-0.0145,-0.0157,-0.0143,-0.0097,-0.0078,-0.007,-0.0062,-0.0073,-0.0013,-0.0015,-0.0018,-0.0112,-0.0124,-0.0134,0,0,0,0,0,0,-0.0225,-0.0194,-0.0179,-0.0169,-0.0173,-0.017,-0.0177,-0.0167,-0.0168,-0.0158,-0.0122,-0.0114,-0.0118,-0.0084,-0.0075,-0.0077,-0.0034,-0.0035,-0.0108,-0.0118,-0.0128,-0.0126,-0.0017,0,0,0,0,0,-0.0227,-0.0212,-0.0198,-0.0193,-0.0192,-0.0185,-0.0188,-0.018,-0.0176,-0.0174,-0.0155,-0.0132,-0.0127,-0.0114,-0.0102,-0.0105,-0.0068,-0.0104,-0.0113,-0.0121,-0.0115,-0.0093,-0.0099,-0.0028,-0.0028,-0.0028,0,0,-0.0238,-0.0218,-0.0211,-0.0198,-0.0196,-0.0216,-0.0184,-0.019,-0.0212,-0.0163,-0.0185,-0.0166,-0.0137,-0.015,-0.0146,-0.012,-0.0125,-0.0124,-0.0132,-0.012,-0.0096,-0.0103,-0.0109,-0.003,-0.003,-0.0029,0,0,-0.0259,-0.0233,-0.0231,-0.0238,-0.0233,-0.0237,-0.0238,-0.0238,-0.024,-0.0261,-0.0235,-0.023,-0.0215,-0.0206,-0.0196,-0.0246,-0.018,-0.0232,-0.0271,-0.0251,-0.0257,-0.0261,-0.0237,-0.0238,-0.0231,-0.0231,-0.0231,0,-0.0277,-0.0266,-0.0241,-0.0252,-0.0268,-0.0248,-0.0276,-0.0284,-0.0289,-0.0295,-0.0275,-0.0269,-0.0244,-0.0258,-0.0278,-0.0266,-0.0239,-0.0235,-0.0263,-0.0267,-0.0269,-0.0243,-0.0243,-0.0236,-0.0235,-0.0235,-0.0234,0,-0.0301,-0.0301,-0.0307,-0.0311,-0.0332,-0.0351,-0.036,-0.0375,-0.037,-0.0372,-0.0383,-0.0361,-0.0349,-0.0346,-0.0327,-0.0337,-0.0308,-0.0285,-0.0237,-0.0283,-0.0252,-0.0251,-0.0244,-0.0242,-0.024,-0.0239,0,0,-0.033,-0.0321,-0.0327,-0.0344,-0.0364,-0.0388,-0.0425,-0.0454,-0.0473,-0.0468,-0.0488,-0.0483,-0.0451,-0.0438,-0.0409,-0.039,-0.0396,-0.0347,-0.0344,-0.0326,-0.0347,-0.0343,-0.0339,-0.0377,-0.0377,-0.0377,-0.0324,0,-0.0363,-0.038,-0.0382,-0.044,-0.0459,-0.0471,-0.0514,-0.0537,-0.0543,-0.0558,-0.0526,-0.053,-0.0492,-0.0483,-0.0464,-0.0411,-0.0393,-0.0412,-0.0302,-0.0298,-0.0291,-0.0338,-0.0259,-0.0206,-0.0322,-0.0321,-0.0321,0,-0.0398,-0.0401,-0.0438,-0.0492,-0.0505,-0.0548,-0.0606,-0.0638,-0.0649,-0.0646,-0.0634,-0.0604,-0.0582,-0.0538,-0.0468,-0.048,-0.0422,-0.0377,-0.0373,-0.0327,-0.029,-0.0174,-0.0197,-0.0317,-0.0317,-0.0318,-0.0318,0,-0.0425,-0.0462,-0.0487,-0.0504,-0.0551,-0.0588,-0.0627,-0.066,-0.0689,-0.0691,-0.0697,-0.0663,-0.0638,-0.057,-0.0477,-0.0471,-0.0389,-0.0368,-0.031,-0.0308,-0.0196,-0.0185,-0.0319,-0.0319,-0.0319,-0.0319,-0.0319,0,-0.0463,-0.0499,-0.0499,-0.0518,-0.0581,-0.0612,-0.0684,-0.0706,-0.0735,-0.0773,-0.0735,-0.0743,-0.0643,-0.0585,-0.0498,-0.04,-0.0404,-0.0322,-0.0298,-0.0232,-0.0225,-0.0279,-0.0275,-0.0317,-0.0317,-0.0318,-0.0318,0,-0.05,-0.049,-0.0527,-0.0563,-0.059,-0.0634,-0.0724,-0.077,-0.0782,-0.0825,-0.0825,-0.0794,-0.0723,-0.0619,-0.0502,-0.0429,-0.0334,-0.0295,-0.0226,-0.0196,-0.026,-0.0262,-0.0233,-0.0233,-0.0232,-0.0232,-0.0232,0,-0.0524,-0.053,-0.0553,-0.0578,-0.0602,-0.0672,-0.0732,-0.0784,-0.0832,-0.0862,-0.0883,-0.083,-0.0806,-0.0635,-0.0449,-0.0293,-0.0323,-0.0168,-0.0153,-0.0274,-0.0253,-0.0256,-0.0259,-0.004,-0.0038,-0.0036,-0.0035,0,-0.0568,-0.0552,-0.0563,-0.0597,-0.0656,-0.074,-0.0824,-0.0869,-0.0928,-0.0951,-0.0984,-0.0967,-0.0782,-0.058,-0.0362,-0.0256,-0.0189,-0.0136,-0.0264,-0.0091,-0.0092,-0.0072,-0.008,-0.0021,-0.0023,-0.0024,-0.0025,-0.0025,-0.0592,-0.0593,-0.058,-0.0627,-0.0692,-0.0792,-0.0867,-0.0905,-0.0969,-0.095,-0.099,-0.0883,-0.0738,-0.0367,-0.0217,-0.0039,-0.0092,-0.0038,-0.0042,-0.0048,-0.0053,-0.0054,0.0023,0.0022,0.0021,0.002,0.002,0,-0.0577,-0.0596,-0.0627,-0.0671,-0.0706,-0.0785,-0.0917,-0.0915,-0.0936,-0.0886,-0.085,-0.064,-0.043,-0.0271,0.0032,0.0131,0.0169,0.0147,0.0175,0.0161,0.0149,0.0155,0.0285,0.0286,0.0287,0.0288,0,0,-0.0573,-0.055,-0.0553,-0.0624,-0.0702,-0.0748,-0.0821,-0.082,-0.077,-0.0695,-0.0598,-0.0489,-0.0383,-0.0122,0.0024,0.0168,0.0146,0.0206,-0.0012,-0.0006,-0.0019,0.0042,0.0034,0,0,0,0,0]}],[{"header":{"parameterUnit":"m.s-1","parameterCategory":2,"la1":30.2991,"la2":30.254,"lo1":-89.0895,"lo2":-89.0444,"dy":0.0017,"dx":0.0017,"nx":28,"ny":28,"refTime":"2026-01-30T03:00:00:Z","depth":"4","parameterNumber":2,"parameterNumberName":"U-component_of_CURRENTS"},"data":[0,0,0,0,0,0,0,0,0,0,0,0,0,0,0,0,0,0,0,0,0,0,0,0,0,0,0,0,0,0,0,0,0,0,0,0,0,0,0,0,0,0,0,0,0,0,0,0,0,0,0,0,0,0,0,0,0,0,-0.1555,-0.1556,0,-0.1642,-0.1643,-0.1645,-0.1692,-0.1692,-0.1692,-0.1692,-0.1804,-0.1807,-0.181,0,0,0,0,0,0,0,0,0,0,0,0,0,-0.146,-0.1462,-0.1555,-0.1556,-0.1557,-0.1642,-0.1644,-0.1645,-0.1692,-0.1692,-0.1692,-0.1692,-0.1803,-0.1806,-0.181,0,0,0,0,0,0,0,0,0,0,0,0,0,-0.1521,-0.1462,-0.1555,-0.159,-0.1594,-0.1642,-0.1644,-0.1645,-0.1692,-0.1692,-0.1692,-0.1692,-0.1802,-0.1806,-0.181,-0.1838,0,0,-0.1824,-0.1826,0,0,0,0,0,0,0,0,-0.1517,-0.1524,-0.1584,-0.1587,-0.1592,-0.1655,-0.1651,-0.171,-0.1692,-0.1656,-0.1692,-0.1692,-0.1756,-0.1764,-0.1782,-0.1843,-0.1848,-0.1824,-0.1827,-0.1829,-0.183,0,0,0,0,0,0,0,-0.1513,-0.1521,-0.1591,-0.1585,-0.159,-0.1612,-0.162,-0.1663,-0.1706,-0.1659,-0.1662,-0.167,-0.1758,-0.1777,-0.1785,-0.1849,-0.1824,-0.1828,-0.1831,-0.1833,-0.1999,-0.2001,0,0,0,0,0,0,-0.1498,-0.1517,-0.1588,-0.1593,-0.1553,-0.1613,-0.1623,-0.1636,-0.1705,-0.1715,-0.167,-0.1672,-0.177,-0.1779,-0.1789,-0.1874,-0.1829,-0.1833,-0.1836,-0.1997,-0.1999,-0.2001,0,0,0,0,0,0,-0.1496,-0.1504,-0.1584,-0.1556,-0.1567,-0.1615,-0.1629,-0.1638,-0.1682,-0.1713,-0.1724,-0.1709,-0.177,-0.1782,-0.1845,-0.1876,-0.1835,-0.1839,-0.1995,-0.1998,-0.2,-0.2012,0,0,0,0,0,0,-0.1493,-0.1503,-0.1524,-0.1555,-0.1568,-0.1628,-0.1629,-0.1639,-0.1685,-0.1689,-0.1749,-0.1758,-0.1771,-0.1839,-0.185,-0.1882,-0.1843,-0.1993,-0.1996,-0.2,-0.201,-0.2015,-0.202,0,0,0,0,0,-0.149,-0.1514,-0.1524,-0.1534,-0.159,-0.1629,-0.1639,-0.1672,-0.1687,-0.1713,-0.1751,-0.1758,-0.1867,-0.1844,-0.1856,-0.189,-0.1991,-0.1996,-0.1999,-0.2007,-0.2014,-0.2019,0,0,0,0,0,0,-0.1489,-0.1521,-0.1534,-0.1569,-0.1603,-0.1637,-0.1669,-0.169,-0.1742,-0.1755,-0.1781,-0.1793,-0.1858,-0.1878,-0.1851,-0.1949,-0.1931,-0.1938,-0.1933,-0.1939,-0.1944,-0.1928,-0.1846,0,0,0,0,0,-0.1496,-0.1522,-0.1553,-0.1585,-0.1604,-0.1642,-0.1669,-0.1692,-0.1732,-0.1757,-0.1795,-0.1841,-0.1882,-0.1913,-0.1951,-0.2009,-0.2001,-0.2041,-0.2046,-0.2049,-0.2046,-0.2058,-0.2062,-0.2014,-0.2014,-0.2014,0,0,-0.1504,-0.1526,-0.1543,-0.1587,-0.1618,-0.1652,-0.166,-0.1708,-0.1742,-0.1761,-0.1831,-0.1863,-0.1902,-0.196,-0.1992,-0.1982,-0.206,-0.2054,-0.2057,-0.2052,-0.2062,-0.2066,-0.207,-0.2017,-0.2016,-0.2016,0,0,-0.1525,-0.1556,-0.1581,-0.161,-0.1658,-0.1681,-0.17,-0.1749,-0.1782,-0.1844,-0.1864,-0.1911,-0.1985,-0.201,-0.2032,-0.2093,-0.2084,-0.2115,-0.213,-0.2142,-0.2145,-0.2148,-0.2136,-0.2138,-0.2119,-0.2119,-0.2119,0,-0.1537,-0.1569,-0.1597,-0.1628,-0.1655,-0.1695,-0.1729,-0.1769,-0.1834,-0.1859,-0.1871,-0.1968,-0.2005,-0.2059,-0.208,-0.2102,-0.2098,-0.21,-0.2145,-0.2148,-0.215,-0.2138,-0.2139,-0.2121,-0.212,-0.212,-0.212,0,-0.1563,-0.1601,-0.1622,-0.167,-0.1705,-0.1743,-0.1789,-0.1835,-0.1876,-0.1907,-0.1976,-0.2018,-0.2068,-0.2095,-0.2109,-0.2154,-0.2141,-0.2144,-0.212,-0.2155,-0.2141,-0.2142,-0.2122,-0.2122,-0.2121,-0.2121,0,0,-0.1552,-0.1626,-0.1636,-0.1664,-0.1729,-0.1758,-0.1818,-0.1873,-0.1908,-0.1972,-0.201,-0.2086,-0.21,-0.2126,-0.2151,-0.2169,-0.2187,-0.2168,-0.2168,-0.2139,-0.2195,-0.2055,-0.2042,-0.2195,-0.2196,-0.2197,-0.2174,0,-0.1565,-0.1624,-0.1659,-0.172,-0.1753,-0.1803,-0.1849,-0.1905,-0.1953,-0.2001,-0.2046,-0.2096,-0.2115,-0.2139,-0.2161,-0.2184,-0.2193,-0.2191,-0.2181,-0.218,-0.2037,-0.204,-0.2199,-0.2175,-0.2175,-0.2175,-0.2175,0,-0.1569,-0.161,-0.1671,-0.1739,-0.1758,-0.18,-0.1869,-0.1916,-0.1984,-0.2018,-0.2066,-0.2098,-0.2146,-0.2151,-0.2189,-0.2187,-0.2192,-0.2201,-0.22,-0.2063,-0.2042,-0.2138,-0.2177,-0.2177,-0.2177,-0.2177,-0.2177,0,-0.153,-0.1613,-0.1662,-0.1687,-0.1772,-0.1808,-0.1853,-0.1923,-0.1956,-0.2026,-0.2048,-0.2105,-0.2131,-0.2155,-0.2178,-0.2188,-0.2198,-0.2211,-0.2085,-0.2075,-0.2203,-0.22,-0.2225,-0.2225,-0.2225,-0.2225,-0.2225,0,-0.1507,-0.1549,-0.1652,-0.1673,-0.1724,-0.1792,-0.184,-0.1891,-0.1953,-0.1974,-0.205,-0.206,-0.2135,-0.215,-0.2169,-0.2113,-0.2187,-0.2073,-0.2056,-0.2209,-0.2208,-0.2203,-0.22,-0.2224,-0.2224,-0.2224,-0.2224,0,-0.1446,-0.1518,-0.1577,-0.1676,-0.1706,-0.1742,-0.182,-0.1841,-0.1917,-0.1943,-0.1962,-0.2032,-0.2041,-0.2088,-0.2119,-0.2076,-0.2058,-0.2023,-0.2164,-0.2158,-0.1931,-0.193,-0.187,-0.1865,-0.1861,-0.1857,-0.1854,0,-0.1415,-0.1443,-0.156,-0.1586,-0.1631,-0.1693,-0.1717,-0.1808,-0.1823,-0.1903,-0.1894,-0.1937,-0.1967,-0.1881,-0.1958,-0.1951,-0.1946,-0.1916,-0.1938,-0.1903,-0.1894,-0.19,-0.1905,-0.1847,-0.1846,-0.1844,-0.1843,0,-0.1348,-0.1407,-0.1453,-0.1506,-0.1548,-0.1581,-0.1627,-0.1628,-0.1711,-0.1801,-0.1764,-0.1763,-0.1762,-0.1779,-0.1774,-0.1783,-0.1925,-0.187,-0.188,-0.19,-0.1874,-0.187,-0.1881,-0.1828,-0.183,-0.1832,-0.1832,0,-0.1297,-0.131,-0.1373,-0.1401,-0.1451,-0.1441,-0.1488,-0.1491,-0.1519,-0.1614,-0.1597,-0.1652,-0.1725,-0.1691,-0.1696,-0.1676,-0.1671,-0.1632,-0.1655,-0.1672,-0.1622,-0.1561,-0.1388,0,0,0,0,0,-0.1231,-0.1224,-0.125,-0.1279,-0.1323,-0.1339,-0.1406,-0.1455,-0.1545,-0.147,-0.1527,-0.1518,-0.1506,-0.1549,-0.1491,-0.1634,-0.1692,-0.1564,-0.1663,-0.1743,-0.1761,-0.1723,0,0,0,0,0,0,-0.1184,-0.121,-0.121,-0.116,-0.1148,-0.1174,-0.1206,-0.1272,-0.1244,-0.1344,-0.1345,-0.1423,-0.144,-0.1506,-0.1456,-0.147,-0.1502,-0.1613,-0.1609,-0.1733,-0.1749,-0.1763,-0.173,0,0,0,0,0]},{"header":{"parameterUnit":"m.s-1","parameterCategory":2,"la1":30.2991,"la2":30.254,"lo1":-89.0895,"lo2":-89.0444,"dy":0.0017,"dx":0.0017,"nx":28,"ny":28,"refTime":"2026-01-30T03:00:00:Z","depth":"4","parameterNumber":3,"parameterNumberName":"V-component_of_CURRENTS"},"data":[0,0,0,0,0,0,0,0,0,0,0,0,0,0,0,0,0,0,0,0,0,0,0,0,0,0,0,0,0,0,0,0,0,0,0,0,0,0,0,0,0,0,0,0,0,0,0,0,0,0,0,0,0,0,0,0,0,0,0.0342,0.0343,0,0.0353,0.0353,0.0353,0.0383,0.0383,0.0384,0.0385,0.0434,0.0435,0.0435,0,0,0,0,0,0,0,0,0,0,0,0,0,0.0299,0.0299,0.0342,0.0343,0.0343,0.0353,0.0353,0.0353,0.0382,0.0383,0.0384,0.0385,0.0434,0.0434,0.0435,0,0,0,0,0,0,0,0,0,0,0,0,0,0.0312,0.03,0.0342,0.036,0.0362,0.0353,0.0353,0.0353,0.0382,0.0383,0.0385,0.0386,0.0434,0.0434,0.0435,0.0415,0,0,0.0438,0.0438,0,0,0,0,0,0,0,0,0.0312,0.0314,0.0357,0.0359,0.0361,0.037,0.0356,0.0376,0.0382,0.0373,0.0385,0.0387,0.0416,0.0419,0.0414,0.0418,0.042,0.0438,0.0438,0.0439,0.0439,0,0,0,0,0,0,0,0.0311,0.0313,0.0345,0.0358,0.036,0.0351,0.0355,0.0359,0.0387,0.0373,0.0376,0.038,0.0418,0.0414,0.0416,0.042,0.0438,0.0438,0.0439,0.0439,0.0407,0.0406,0,0,0,0,0,0,0.0315,0.0313,0.0344,0.0345,0.0341,0.0351,0.0355,0.0364,0.0386,0.0391,0.0379,0.0381,0.0412,0.0415,0.0418,0.0385,0.0439,0.0439,0.044,0.0409,0.0407,0.0406,0,0,0,0,0,0,0.0314,0.0318,0.0344,0.033,0.0333,0.0352,0.0361,0.0364,0.0369,0.039,0.0395,0.0383,0.0413,0.0417,0.0407,0.0388,0.044,0.044,0.041,0.0408,0.0406,0.0327,0,0,0,0,0,0,0.0312,0.0317,0.0321,0.0331,0.0334,0.0334,0.036,0.0363,0.037,0.0373,0.0394,0.04,0.0414,0.0405,0.0408,0.039,0.0441,0.0412,0.0409,0.0407,0.0331,0.0323,0.0315,0,0,0,0,0,0.0311,0.0308,0.0321,0.0325,0.034,0.0333,0.0334,0.0349,0.0369,0.0361,0.0367,0.04,0.0392,0.0404,0.0408,0.039,0.0413,0.041,0.0407,0.0335,0.0324,0.0315,0,0,0,0,0,0,0.0287,0.0312,0.0326,0.0331,0.0332,0.0339,0.0335,0.0348,0.0347,0.0354,0.0377,0.0381,0.0366,0.0386,0.04,0.0373,0.041,0.0408,0.0354,0.0344,0.0336,0.0336,0.0442,0,0,0,0,0,0.0285,0.0293,0.0308,0.0309,0.0312,0.0324,0.0325,0.0335,0.0338,0.034,0.035,0.0359,0.0353,0.0356,0.0356,0.0341,0.0364,0.0333,0.0325,0.0318,0.0319,0.0323,0.0316,0.0396,0.0396,0.0396,0,0,0.0276,0.029,0.0295,0.0305,0.031,0.0296,0.0327,0.0326,0.0308,0.0345,0.0322,0.033,0.0341,0.0317,0.0314,0.0335,0.0305,0.0314,0.0308,0.0313,0.032,0.0312,0.0305,0.0394,0.0394,0.0395,0,0,0.0255,0.0275,0.0272,0.0269,0.0277,0.0278,0.0278,0.0283,0.0282,0.026,0.0277,0.0271,0.0268,0.0264,0.0264,0.0213,0.0259,0.0219,0.0181,0.0185,0.0178,0.0173,0.0184,0.0181,0.0219,0.0219,0.0218,0,0.0243,0.0243,0.0265,0.0255,0.0245,0.0268,0.0247,0.024,0.0237,0.0227,0.0246,0.0227,0.024,0.0207,0.0188,0.0195,0.021,0.0216,0.0174,0.017,0.0166,0.0179,0.0176,0.0214,0.0215,0.0215,0.0216,0,0.0217,0.0213,0.0206,0.0202,0.019,0.0176,0.0171,0.0157,0.0162,0.0159,0.0133,0.0141,0.0135,0.0133,0.0145,0.0117,0.0141,0.016,0.02,0.0153,0.0169,0.0168,0.0208,0.021,0.0211,0.0212,0,0,0.02,0.0192,0.0189,0.0171,0.0161,0.0144,0.0111,0.0085,0.0063,0.0061,0.0032,0.002,0.0041,0.0042,0.0058,0.0062,0.0043,0.0098,0.01,0.011,0.0056,0.0073,0.0073,0.0057,0.0056,0.0055,0.0076,0,0.0171,0.0143,0.0141,0.0092,0.0073,0.0068,0.003,0.0009,-0.0001,-0.0026,-0.0014,-0.0033,0.0,-0.0002,0.0003,0.0033,0.0037,0.0036,0.01,0.0102,0.0123,0.0071,0.0054,0.0076,0.0075,0.0075,0.0075,0,0.0145,0.0128,0.009,0.0038,0.0027,-0.0006,-0.0057,-0.0086,-0.011,-0.0113,-0.0119,-0.0105,-0.0108,-0.0067,-0.0038,-0.0039,0.0002,0.0031,0.0033,0.0078,0.0115,0.0135,0.0073,0.0073,0.0073,0.0073,0.0073,0,0.0129,0.0082,0.0051,0.0036,-0.001,-0.0044,-0.0078,-0.0111,-0.0143,-0.0163,-0.0178,-0.0172,-0.0169,-0.0125,-0.0061,-0.0051,-0.0017,0.0005,0.0057,0.0059,0.0077,0.0082,0.0026,0.0026,0.0026,0.0026,0.0026,0,0.0102,0.0071,0.0039,0.0021,-0.0043,-0.0069,-0.0137,-0.0159,-0.0197,-0.0239,-0.0219,-0.0241,-0.0182,-0.0154,-0.0086,-0.0021,-0.0036,0.0041,0.0059,0.0042,0.0043,0.0076,0.0081,0.0027,0.0027,0.0026,0.0026,0,0.0099,0.0082,0.0043,-0.0012,-0.0045,-0.0084,-0.0177,-0.0224,-0.0246,-0.0297,-0.0304,-0.0298,-0.026,-0.0192,-0.0121,-0.0059,0.0007,0.0038,0.0011,0.003,0.0088,0.0089,0.0086,0.0087,0.0087,0.0088,0.0088,0,0.0095,0.0083,0.0029,-0.0007,-0.0036,-0.0112,-0.0175,-0.0236,-0.0284,-0.0332,-0.0355,-0.0339,-0.0321,-0.0215,-0.0133,-0.0013,0.0014,0.0053,0.0069,0.0072,0.0091,0.0091,0.0092,0.0089,0.0089,0.0089,0.0089,0,0.0092,0.0092,0.0072,0.0012,-0.0058,-0.0159,-0.0248,-0.0293,-0.036,-0.0381,-0.0401,-0.0355,-0.0312,-0.0222,-0.0127,-0.0038,0.0027,0.0059,0.0058,0.0074,0.0076,0.0094,0.0094,0.0091,0.0091,0.0091,0.0091,0,0.0102,0.0104,0.0094,0.0038,-0.0054,-0.0171,-0.0242,-0.0318,-0.0374,-0.0423,-0.0429,-0.0382,-0.0359,-0.0235,-0.0149,-0.006,-0.0032,0.001,0.0013,0.0012,-0.0008,-0.0016,-0.0025,0,0,0,0,0,0.0104,0.0129,0.01,0.0035,-0.0058,-0.0114,-0.0268,-0.0336,-0.0409,-0.0423,-0.0427,-0.0385,-0.0275,-0.0235,-0.0143,-0.0127,-0.0008,-0.0015,0.0044,0.0101,0.0099,0.009,0,0,0,0,0,0,0.0111,0.0116,0.0134,0.0053,0.0008,-0.0118,-0.0216,-0.0289,-0.0311,-0.0361,-0.0312,-0.0305,-0.0204,-0.0288,-0.0107,-0.0086,-0.003,0.003,0.0033,0.0102,0.01,0.0099,0.0089,0,0,0,0,0]}]]